Home   Weather   Yakutsk   Past weeks

Flag for Russia Past Weather in Yakutsk, Russia — Yesterday and Last 2 Weeks

Now
-33 °F

Ice fog.


Feels Like: -45 °F
Forecast: -36 / -14 °F
Wind: 3 mph from North

Location: Jakutsk

Current Time: Feb 27, 2017 at 8:47:51 am

Latest Report: Feb 27, 2017 at 8:00 am


Visibility: 3 mi

Pressure: 30.04 "Hg

Humidity: 74%

Dew Point: -38 °F

Location of YakutskLocation

Past Weather in Yakutsk — Graph

°F

Yakutsk Temperature Yesterday

Maximum temperature yesterday: -8 °F (at 3:30 pm)
Minimum temperature yesterday: -31 °F (at 12:00 am)
Average temperature yesterday: -20 °F

High & Low Weather Summary for the Past Weeks

 TemperatureHumidityPressure
High-8 °F (Feb 26, 3:30 pm)84% (Feb 26, 6:00 pm)30.48 "Hg (Feb 26, 6:00 pm)
Low-44 °F (Feb 23, 9:00 am)58% (Feb 16, 3:00 am)29.68 "Hg (Feb 26, 11:30 am)
Average-29 °F69%30.11 "Hg
* Reported Feb 12 7:00 am — Feb 27 7:30 am, Yakutsk, Weather by CustomWeather, © 2017

Note: Actual official high and low records may vary slightly from our data, if they occured in-between our weather recording intervals... More about our weather records

Advertising

Yakutsk Weather History for the Previous 24 Hours

Scroll right to see more
 ConditionsComfort  
Time TempWeatherWind HumidityBarometerVisibility
7:30 am
Mon, Feb 27
-31 °FSunny.3 mph67%30.01 "Hg10 mi
7:00 am-35 °FSunny.3 mph73%30.01 "Hg10 mi
6:30 am-35 °FClear.No wind66%30.01 "Hg10 mi
6:00 am-35 °FClear.3 mph73%29.98 "Hg10 mi
5:30 am-31 °FClear.1 mph67%29.98 "Hg10 mi
5:00 am-33 °FClear.No wind74%29.98 "Hg10 mi
4:30 am-31 °FClear.No wind67%29.95 "Hg10 mi
4:00 am-29 °FClear.1 mph67%29.95 "Hg10 mi
3:30 am-27 °FClear.1 mph67%29.95 "Hg10 mi
3:00 am-26 °FClear.3 mph75%29.95 "Hg10 mi
2:30 am-26 °FClear.3 mph75%29.92 "Hg10 mi
2:00 am-26 °FClear.6 mph75%29.92 "Hg10 mi
1:30 am-26 °FClear.6 mph75%29.92 "Hg10 mi
1:00 am-24 °FClear.6 mph75%29.92 "Hg10 mi
12:30 am-22 °FClear.6 mph75%29.92 "Hg10 mi
12:00 am-22 °FClear.6 mph75%29.89 "Hg10 mi
11:30 pm
Sun, Feb 26
-20 °FClear.6 mph75%29.89 "Hg10 mi
11:00 pm-20 °FClear.3 mph75%29.89 "Hg10 mi
10:30 pm-20 °FClear.6 mph75%29.86 "Hg10 mi
10:00 pm-18 °FClear.6 mph75%29.86 "Hg10 mi
9:30 pm-18 °FClear.6 mph75%29.86 "Hg10 mi
9:00 pm-17 °FClear.6 mph76%29.86 "Hg10 mi
8:30 pm-17 °FClear.6 mph83%29.83 "Hg10 mi
8:00 pm-15 °FClear.6 mph76%29.83 "Hg10 mi
7:30 pm-15 °FPassing clouds.6 mph76%29.83 "HgN/A
7:00 pm-15 °FPassing clouds.3 mph83%29.80 "HgN/A
6:30 pm-11 °FLight snow. Passing clouds.6 mph76%29.80 "HgN/A
6:00 pm-11 °FLight snow. Passing clouds.6 mph84%29.80 "HgN/A
5:30 pm-9 °FLight snow. Passing clouds.6 mph77%29.77 "Hg2 mi
5:00 pm-9 °FLight snow. Passing clouds.6 mph77%29.77 "Hg2 mi
4:30 pm-9 °FLight snow. Scattered clouds.6 mph77%29.74 "HgN/A
4:00 pm-8 °FLight snow. Clear.8 mph77%29.74 "HgN/A
3:30 pm-8 °FSnow flurries. Passing clouds.6 mph77%29.74 "HgN/A
3:00 pm-9 °FSnow showers. Scattered clouds.8 mph77%29.71 "Hg1 mi
2:30 pm-9 °FSnow flurries. Scattered clouds.6 mph77%29.71 "Hg1 mi
2:00 pm-9 °FSnow showers. Scattered clouds.8 mph77%29.71 "Hg1 mi
1:30 pm-11 °FSnow showers. Scattered clouds.8 mph76%29.71 "Hg1 mi
1:00 pm-13 °FSnow showers. Scattered clouds.8 mph76%29.71 "Hg1 mi
12:30 pm-13 °FLight snow. Scattered clouds.6 mph69%29.71 "Hg2 mi
12:00 pm-15 °FLight snow. Scattered clouds.6 mph76%29.68 "Hg3 mi
11:30 am-17 °FLight snow. Scattered clouds.6 mph76%29.68 "Hg2 mi
11:00 am-18 °FLight snow. Scattered clouds.6 mph75%29.71 "Hg3 mi
10:30 am-20 °FLight snow. Scattered clouds.6 mph75%29.71 "Hg3 mi
10:00 am-20 °FLight snow. Scattered clouds.6 mph68%29.71 "Hg3 mi
9:30 am-22 °FLight snow. Scattered clouds.6 mph75%29.71 "HgN/A
9:00 am-24 °FLight snow. Scattered clouds.6 mph75%29.71 "HgN/A
8:30 am-24 °FLight snow. Scattered clouds.3 mph68%29.71 "HgN/A
8:00 am-26 °FLight snow. Clear.3 mph75%29.71 "HgN/A
Weather by CustomWeather, © 2017

See weather overviewHow to use our weather pages